| time (UTC) | temp C | wind direction | speed KPH | gust KPH | rain 1hr cm | rain 24hr cm | rain mn cm | humidity % | barometer mb |
| 20260901083140 | 24 | 212 | 4.8 | 6.4 | 0.00 | 0.00 | 0.00 | 93 | 1012.9 |
| 20260901082634 | 24 | 161 | 3.2 | 9.7 | 0.00 | 0.00 | 0.00 | 94 | 1012.9 |
| 20260901082129 | 24 | 188 | 0.0 | 4.8 | 0.00 | 0.00 | 0.00 | 93 | 1012.7 |
| 20260901081625 | 24 | 187 | 3.2 | 6.4 | 0.00 | 0.00 | 0.00 | 93 | 1013.0 |
| 20260901081119 | 24 | 189 | 4.8 | 9.7 | 0.00 | 0.00 | 0.00 | 93 | 1012.9 |
| 20260901080614 | 24 | 195 | 6.4 | 9.7 | 0.00 | 0.00 | 0.00 | 93 | 1013.0 |
| 20260901080113 | 24 | 221 | 1.6 | 6.4 | 0.00 | 0.00 | 0.00 | 93 | 1012.9 |
| 20260901075609 | 24 | 205 | 3.2 | 6.4 | 0.00 | 0.00 | 0.00 | 93 | 1012.8 |
| 20260901075108 | 24 | 212 | 0.0 | 6.4 | 0.00 | 0.00 | 0.00 | 93 | 1012.8 |
| 20260901074608 | 24 | 208 | 6.4 | 6.4 | 0.00 | 0.00 | 0.00 | 93 | 1013.0 |
| 20260901074103 | 24 | 214 | 8.0 | 12.9 | 0.00 | 0.00 | 0.00 | 92 | 1013.0 |
| 20260901073600 | 24 | 200 | 6.4 | 9.7 | 0.00 | 0.00 | 0.00 | 92 | 1013.0 |
| 20260901073059 | 24 | 215 | 4.8 | 6.4 | 0.00 | 0.00 | 0.00 | 92 | 1013.0 |
| 20260901072555 | 24 | 203 | 8.0 | 8.0 | 0.00 | 0.00 | 0.00 | 92 | 1013.0 |
| 20260901072049 | 24 | 197 | 3.2 | 9.7 | 0.00 | 0.00 | 0.00 | 92 | 1012.8 |
| 20260901071544 | 24 | 177 | 3.2 | 6.4 | 0.00 | 0.00 | 0.00 | 92 | 1012.9 |
| 20260901071042 | 24 | 204 | 4.8 | 8.0 | 0.00 | 0.00 | 0.00 | 92 | 1012.7 |
| 20260901070537 | 24 | 196 | 6.4 | 11.3 | 0.00 | 0.00 | 0.00 | 92 | 1012.7 |
| 20260901070033 | 24 | 245 | 0.0 | 8.0 | 0.00 | 0.00 | 0.00 | 92 | 1012.7 |
| 20260901065527 | 24 | 207 | 6.4 | 8.0 | 0.00 | 0.00 | 0.00 | 93 | 1012.7 |
| 20260901065021 | 24 | 180 | 3.2 | 6.4 | 0.00 | 0.00 | 0.00 | 93 | 1012.8 |
| 20260901064519 | 24 | 213 | 4.8 | 6.4 | 0.00 | 0.00 | 0.00 | 93 | 1012.9 |
| 20260901064015 | 24 | 200 | 3.2 | 4.8 | 0.00 | 0.00 | 0.00 | 92 | 1012.9 |
| 20260901063512 | 24 | 202 | 3.2 | 4.8 | 0.00 | 0.00 | 0.00 | 93 | 1012.8 |
| 20260901063008 | 24 | 224 | 0.0 | 3.2 | 0.00 | 0.00 | 0.00 | 92 | 1012.7 |
| 20260901062503 | 25 | 224 | 1.6 | 4.8 | 0.00 | 0.00 | 0.00 | 92 | 1012.7 |
| 20260901061959 | 25 | 221 | 3.2 | 6.4 | 0.00 | 0.00 | 0.00 | 92 | 1012.8 |
| 20260901061454 | 24 | 219 | 3.2 | 3.2 | 0.00 | 0.00 | 0.00 | 92 | 1012.7 |
| 20260901060949 | 24 | 220 | 0.0 | 3.2 | 0.00 | 0.00 | 0.00 | 93 | 1012.6 |
| 20260901060444 | 24 | 206 | 1.6 | 3.2 | 0.00 | 0.00 | 0.00 | 93 | 1012.6 |
| 20260901055943 | 24 | 212 | 0.0 | 3.2 | 0.00 | 0.00 | 0.00 | 93 | 1012.7 |
| 20260901055440 | 25 | 193 | 1.6 | 4.8 | 0.00 | 0.00 | 0.00 | 93 | 1012.6 |
| 20260901054936 | 25 | 129 | 0.0 | 3.2 | 0.00 | 0.00 | 0.00 | 93 | 1012.7 |
| 20260901054434 | 25 | 211 | 0.0 | 3.2 | 0.00 | 0.00 | 0.00 | 93 | 1012.7 |
| 20260901053929 | 25 | 205 | 0.0 | 6.4 | 0.00 | 0.00 | 0.00 | 93 | 1012.7 |
| 20260901053425 | 25 | 198 | 3.2 | 4.8 | 0.00 | 0.00 | 0.00 | 93 | 1012.8 |
| 20260901052920 | 24 | 194 | 1.6 | 3.2 | 0.00 | 0.00 | 0.00 | 94 | 1012.6 |
| 20260901052415 | 25 | 171 | 0.0 | 3.2 | 0.00 | 0.00 | 0.00 | 94 | 1012.6 |
| 20260901051914 | 25 | 205 | 0.0 | 1.6 | 0.00 | 0.00 | 0.00 | 94 | 1012.7 |
| 20260901051410 | 25 | 212 | 0.0 | 3.2 | 0.00 | 0.00 | 0.00 | 94 | 1012.8 |
| 20260901050904 | 25 | 232 | 3.2 | 3.2 | 0.00 | 0.00 | 0.00 | 94 | 1012.8 |
| 20260901050400 | 25 | 204 | 1.6 | 3.2 | 0.00 | 0.00 | 0.00 | 93 | 1012.7 |
| 20260901045859 | 25 | 217 | 3.2 | 4.8 | 0.00 | 0.41 | 0.41 | 93 | 1012.8 |
| 20260901045354 | 25 | 206 | 3.2 | 4.8 | 0.00 | 0.41 | 0.41 | 94 | 1012.8 |
| 20260901044849 | 25 | 197 | 3.2 | 4.8 | 0.00 | 0.41 | 0.41 | 94 | 1013.0 |
| 20260901044345 | 25 | 220 | 3.2 | 3.2 | 0.00 | 0.41 | 0.41 | 94 | 1012.8 |
| 20260901043841 | 25 | 219 | 1.6 | 3.2 | 0.00 | 0.41 | 0.41 | 94 | 1012.7 |
| 20260901043337 | 25 | 214 | 1.6 | 3.2 | 0.00 | 0.41 | 0.41 | 94 | 1012.9 |
| 20260901042836 | 25 | 220 | 1.6 | 3.2 | 0.00 | 0.41 | 0.41 | 93 | 1013.1 |
| 20260901042331 | 25 | 198 | 3.2 | 3.2 | 0.00 | 0.41 | 0.41 | 93 | 1013.0 |
| 20260901041827 | 25 | 213 | 1.6 | 3.2 | 0.00 | 0.41 | 0.41 | 92 | 1013.0 |
| 20260901041322 | 25 | 219 | 0.0 | 3.2 | 0.00 | 0.41 | 0.41 | 92 | 1012.9 |
| 20260901040821 | 25 | 224 | 3.2 | 4.8 | 0.00 | 0.41 | 0.41 | 92 | 1012.8 |
| 20260901040320 | 25 | 219 | 3.2 | 6.4 | 0.00 | 0.41 | 0.41 | 92 | 1013.0 |
| 20260901035815 | 25 | 243 | 3.2 | 3.2 | 0.00 | 0.41 | 0.41 | 92 | 1013.0 |
| 20260901035313 | 25 | 255 | 0.0 | 3.2 | 0.00 | 0.41 | 0.41 | 92 | 1012.8 |
| 20260901034812 | 26 | 236 | 0.0 | 4.8 | 0.00 | 0.41 | 0.41 | 92 | 1012.9 |
| 20260901034308 | 26 | 221 | 0.0 | 3.2 | 0.00 | 0.41 | 0.41 | 91 | 1012.8 |
| 20260901033802 | 26 | 196 | 3.2 | 4.8 | 0.00 | 0.41 | 0.41 | 91 | 1013.0 |
| 20260901033301 | 26 | 205 | 3.2 | 6.4 | 0.00 | 0.41 | 0.41 | 90 | 1013.0 |
| 20260901032759 | 26 | 224 | 3.2 | 8.0 | 0.00 | 0.41 | 0.41 | 90 | 1012.9 |
| 20260901032254 | 26 | 225 | 3.2 | 4.8 | 0.00 | 0.41 | 0.41 | 90 | 1012.9 |
| 20260901031749 | 26 | 218 | 3.2 | 4.8 | 0.00 | 0.41 | 0.41 | 90 | 1013.2 |
| 20260901031244 | 26 | 192 | 1.6 | 3.2 | 0.00 | 0.41 | 0.41 | 90 | 1013.1 |
| 20260901030739 | 26 | 212 | 0.0 | 3.2 | 0.00 | 0.41 | 0.41 | 89 | 1013.3 |
| 20260901030234 | 26 | 220 | 1.6 | 6.4 | 0.00 | 0.41 | 0.41 | 89 | 1013.2 |
| 20260901025728 | 26 | 242 | 4.8 | 9.7 | 0.00 | 0.41 | 0.41 | 89 | 1012.8 |
| 20260901025223 | 26 | 187 | 4.8 | 4.8 | 0.00 | 0.41 | 0.41 | 90 | 1012.9 |
| 20260901024723 | 26 | 207 | 3.2 | 4.8 | 0.00 | 0.41 | 0.41 | 90 | 1013.0 |
| 20260901024223 | 26 | 197 | 3.2 | 3.2 | 0.00 | 0.41 | 0.41 | 91 | 1012.9 |
| 20260901023721 | 26 | 196 | 3.2 | 4.8 | 0.00 | 0.41 | 0.41 | 91 | 1012.9 |
| 20260901023216 | 26 | 218 | 3.2 | 3.2 | 0.00 | 0.41 | 0.41 | 91 | 1013.1 |
| 20260901022711 | 26 | 198 | 0.0 | 3.2 | 0.00 | 0.41 | 0.41 | 91 | 1013.2 |
| 20260901022206 | 26 | 205 | 3.2 | 4.8 | 0.00 | 0.41 | 0.41 | 91 | 1013.2 |
| 20260901021702 | 26 | 227 | 0.0 | 3.2 | 0.00 | 0.41 | 0.41 | 91 | 1013.3 |
| 20260901021156 | 26 | 297 | 0.0 | 3.2 | 0.00 | 0.41 | 0.41 | 91 | 1013.3 |
| 20260901020652 | 26 | 212 | 4.8 | 6.4 | 0.00 | 0.41 | 0.41 | 90 | 1012.8 |
| 20260901020148 | 26 | 199 | 3.2 | 11.3 | 0.00 | 0.41 | 0.41 | 90 | 1013.0 |
| 20260901015643 | 26 | 180 | 0.0 | 4.8 | 0.00 | 0.41 | 0.41 | 90 | 1012.9 |
| 20260901015142 | 26 | 218 | 1.6 | 4.8 | 0.00 | 0.41 | 0.41 | 90 | 1012.8 |
| 20260901014637 | 26 | 206 | 3.2 | 6.4 | 0.00 | 0.41 | 0.41 | 91 | 1013.0 |
| 20260901014133 | 26 | 227 | 0.0 | 4.8 | 0.00 | 0.41 | 0.41 | 92 | 1012.8 |
| 20260901013629 | 25 | 230 | 4.8 | 6.4 | 0.00 | 0.41 | 0.41 | 93 | 1012.6 |
| 20260901013125 | 25 | 202 | 3.2 | 3.2 | 0.00 | 0.41 | 0.41 | 93 | 1013.0 |
| 20260901012624 | 25 | 189 | 0.0 | 4.8 | 0.00 | 0.41 | 0.41 | 93 | 1012.6 |
| 20260901012119 | 25 | 209 | 0.0 | 0.0 | 0.00 | 0.41 | 0.41 | 94 | 1012.8 |
| 20260901011611 | 25 | 217 | 0.0 | 0.0 | 0.00 | 0.41 | 0.41 | 94 | 1012.8 |
| 20260901011109 | 25 | 269 | 0.0 | 0.0 | 0.00 | 0.41 | 0.41 | 94 | 1012.8 |
| 20260901010604 | 25 | 269 | 0.0 | 0.0 | 0.00 | 0.41 | 0.41 | 94 | 1012.8 |
| 20260901005557 | 25 | 217 | 0.0 | 3.2 | 0.00 | 0.41 | 0.41 | 93 | 1012.6 |
| 20260901005052 | 26 | 205 | 0.0 | 1.6 | 0.00 | 0.41 | 0.41 | 93 | 1012.6 |
| 20260901004552 | 26 | 241 | 3.2 | 3.2 | 0.00 | 0.41 | 0.41 | 92 | 1012.5 |
| 20260901004047 | 26 | 240 | 0.0 | 3.2 | 0.00 | 0.41 | 0.41 | 91 | 1012.6 |
| 20260901003543 | 26 | 229 | 0.0 | 3.2 | 0.00 | 0.41 | 0.41 | 92 | 1012.7 |
| 20260901003041 | 26 | 230 | 0.0 | 1.6 | 0.00 | 0.41 | 0.41 | 91 | 1012.8 |
| 20260901002540 | 26 | 220 | 0.0 | 1.6 | 0.00 | 0.41 | 0.41 | 91 | 1012.6 |
| 20260901002036 | 26 | 164 | 0.0 | 3.2 | 0.00 | 0.41 | 0.41 | 91 | 1012.7 |
| 20260901001530 | 26 | 211 | 0.0 | 0.0 | 0.00 | 0.41 | 0.41 | 91 | 1012.7 |
| 20260901001026 | 27 | 193 | 0.0 | 3.2 | 0.00 | 0.41 | 0.41 | 89 | 1012.8 |
| 20260901000525 | 27 | 203 | 4.8 | 4.8 | 0.00 | 0.41 | 0.41 | 89 | 1012.5 |
| 20260901000021 | 27 | 226 | 3.2 | 8.0 | 0.00 | 0.41 | 0.41 | 89 | 1012.4 |
| 20260831235515 | 27 | 238 | 1.6 | 4.8 | 0.00 | 0.41 | 0.41 | 89 | 1012.1 |
| 20260831235010 | 27 | 211 | 4.8 | 6.4 | 0.00 | 0.41 | 0.41 | 88 | 1012.2 |
| 20260831234505 | 27 | 238 | 4.8 | 6.4 | 0.00 | 0.41 | 0.41 | 90 | 1012.1 |
| 20260831234001 | 27 | 213 | 4.8 | 6.4 | 0.00 | 0.41 | 0.41 | 91 | 1012.2 |
| 20260831233455 | 27 | 241 | 3.2 | 4.8 | 0.13 | 0.41 | 0.41 | 92 | 1011.8 |
| 20260831232951 | 27 | 119 | 0.0 | 3.2 | 0.18 | 0.41 | 0.41 | 93 | 1011.6 |
| 20260831232447 | 27 | 138 | 3.2 | 4.8 | 0.05 | 0.38 | 0.38 | 93 | 1012.0 |
| 20260831231942 | 27 | 129 | 0.0 | 0.0 | 0.00 | 0.38 | 0.38 | 93 | 1012.7 |
| 20260831231439 | 27 | 186 | 0.0 | 1.6 | 0.00 | 0.38 | 0.38 | 91 | 1012.9 |
| 20260831230934 | 27 | 310 | 0.0 | 0.0 | 0.00 | 0.38 | 0.38 | 92 | 1013.2 |
| 20260831230434 | 27 | 296 | 0.0 | 3.2 | 0.00 | 0.38 | 0.38 | 92 | 1012.9 |
| 20260831225928 | 27 | 273 | 0.0 | 1.6 | 0.00 | 0.38 | 0.38 | 91 | 1012.8 |
| 20260831225425 | 27 | 230 | 0.0 | 0.0 | 0.00 | 0.38 | 0.38 | 92 | 1012.5 |
| 20260831224920 | 27 | 309 | 0.0 | 0.0 | 0.00 | 0.38 | 0.38 | 92 | 1012.3 |
| 20260831224419 | 27 | 224 | 0.0 | 3.2 | 0.00 | 0.38 | 0.38 | 93 | 1012.2 |
| 20260831223914 | 27 | 217 | 0.0 | 1.6 | 0.00 | 0.38 | 0.38 | 91 | 1012.2 |
| 20260831223410 | 27 | 212 | 0.0 | 3.2 | 0.00 | 0.38 | 0.38 | 92 | 1012.1 |
| 20260831222906 | 27 | 255 | 0.0 | 0.0 | 0.00 | 0.38 | 0.38 | 88 | 1012.3 |
| 20260831222402 | 27 | 234 | 0.0 | 3.2 | 0.79 | 0.38 | 0.38 | 87 | 1012.2 |
| 20260831221856 | 28 | 239 | 3.2 | 3.2 | 0.66 | 0.36 | 0.36 | 85 | 1012.3 |
| 20260831221352 | 30 | 284 | 0.0 | 4.8 | 0.00 | 0.23 | 0.23 | 76 | 1012.2 |
| 20260831220848 | 30 | 214 | 1.6 | 9.7 | 0.00 | 0.23 | 0.23 | 72 | 1012.1 |
| 20260831220343 | 30 | 220 | 8.0 | 8.0 | 0.00 | 0.23 | 0.23 | 71 | 1012.3 |
| 20260831215838 | 30 | 190 | 3.2 | 11.3 | 0.00 | 0.23 | 0.23 | 71 | 1012.2 |
| 20260831215334 | 31 | 223 | 6.4 | 6.4 | 0.00 | 0.23 | 0.23 | 70 | 1011.9 |
| 20260831214830 | 30 | 214 | 4.8 | 11.3 | 0.00 | 0.23 | 0.23 | 70 | 1011.9 |
| 20260831214327 | 31 | 178 | 6.4 | 11.3 | 0.00 | 0.23 | 0.23 | 69 | 1012.2 |
| 20260831213822 | 31 | 199 | 3.2 | 11.3 | 0.00 | 0.23 | 0.23 | 69 | 1011.8 |
| 20260831213319 | 31 | 232 | 6.4 | 12.9 | 0.00 | 0.23 | 0.23 | 68 | 1011.8 |
| 20260831212814 | 31 | 212 | 6.4 | 12.9 | 0.00 | 0.23 | 0.23 | 67 | 1011.9 |
| 20260831212311 | 31 | 235 | 0.0 | 17.7 | 0.00 | 0.23 | 0.23 | 68 | 1012.0 |
| 20260831211809 | 31 | 219 | 6.4 | 11.3 | 0.00 | 0.23 | 0.23 | 68 | 1012.0 |
| 20260831211304 | 31 | 189 | 9.7 | 9.7 | 0.00 | 0.23 | 0.23 | 67 | 1012.0 |
| 20260831210758 | 31 | 232 | 4.8 | 17.7 | 0.00 | 0.23 | 0.23 | 67 | 1012.0 |
| 20260831210255 | 31 | 197 | 8.0 | 11.3 | 0.00 | 0.23 | 0.23 | 66 | 1012.1 |
| 20260831205754 | 31 | 212 | 4.8 | 9.7 | 0.00 | 0.23 | 0.23 | 67 | 1012.0 |
| 20260831205250 | 32 | 153 | 6.4 | 11.3 | 0.00 | 0.23 | 0.23 | 65 | 1012.1 |
| 20260831204749 | 31 | 225 | 9.7 | 17.7 | 0.00 | 0.23 | 0.23 | 66 | 1012.1 |
| 20260831204249 | 31 | 196 | 8.0 | 9.7 | 0.00 | 0.23 | 0.23 | 67 | 1012.0 |
| 20260831203748 | 31 | 212 | 9.7 | 25.7 | 0.00 | 0.23 | 0.23 | 66 | 1012.2 |
| 20260831203243 | 31 | 184 | 8.0 | 14.5 | 0.00 | 0.23 | 0.23 | 67 | 1012.0 |
| 20260831202741 | 32 | 206 | 9.7 | 11.3 | 0.00 | 0.23 | 0.23 | 66 | 1012.6 |
| 20260831202236 | 31 | 138 | 6.4 | 14.5 | 0.00 | 0.23 | 0.23 | 66 | 1012.4 |
| 20260831201731 | 31 | 207 | 8.0 | 11.3 | 0.00 | 0.23 | 0.23 | 67 | 1012.5 |
| 20260831201224 | 31 | 225 | 4.8 | 8.0 | 0.00 | 0.23 | 0.23 | 69 | 1012.7 |
| 20260831200721 | 31 | 219 | 4.8 | 9.7 | 0.00 | 0.23 | 0.23 | 69 | 1012.8 |
| 20260831200220 | 31 | 216 | 9.7 | 16.1 | 0.00 | 0.23 | 0.23 | 68 | 1012.6 |
| 20260831195716 | 31 | 180 | 6.4 | 11.3 | 0.00 | 0.23 | 0.23 | 69 | 1012.3 |
| 20260831195211 | 31 | 209 | 4.8 | 9.7 | 0.00 | 0.23 | 0.23 | 69 | 1012.5 |
| 20260831194700 | 30 | 203 | 4.8 | 8.0 | 0.00 | 0.23 | 0.23 | 70 | 1012.4 |
| 20260831194155 | 30 | 210 | 6.4 | 19.3 | 0.00 | 0.23 | 0.23 | 69 | 1012.2 |
| 20260831193650 | 31 | 223 | 3.2 | 9.7 | 0.00 | 0.23 | 0.23 | 70 | 1012.4 |
| 20260831193145 | 31 | 222 | 9.7 | 9.7 | 0.00 | 0.23 | 0.23 | 68 | 1012.4 |
| 20260831192640 | 31 | 228 | 6.4 | 12.9 | 0.00 | 0.23 | 0.23 | 67 | 1012.3 |
| 20260831192136 | 30 | 213 | 9.7 | 22.5 | 0.00 | 0.23 | 0.23 | 67 | 1012.5 |
| 20260831191631 | 31 | 218 | 9.7 | 14.5 | 0.00 | 0.23 | 0.23 | 66 | 1012.7 |
| 20260831191127 | 31 | 194 | 19.3 | 19.3 | 0.00 | 0.23 | 0.23 | 67 | 1012.6 |
| 20260831190622 | 31 | 206 | 9.7 | 16.1 | 0.00 | 0.23 | 0.23 | 66 | 1012.5 |
| 20260831190120 | 30 | 214 | 6.4 | 19.3 | 0.00 | 0.23 | 0.23 | 66 | 1012.5 |
| 20260831185611 | 31 | 197 | 12.9 | 16.1 | 0.00 | 0.23 | 0.23 | 64 | 1012.9 |
| 20260831185107 | 31 | 202 | 11.3 | 12.9 | 0.00 | 0.23 | 0.23 | 64 | 1012.4 |
| 20260831184606 | 31 | 236 | 6.4 | 22.5 | 0.00 | 0.23 | 0.23 | 65 | 1012.7 |
| 20260831184101 | 32 | 221 | 6.4 | 20.9 | 0.00 | 0.23 | 0.23 | 66 | 1012.4 |
| 20260831183600 | 31 | 208 | 3.2 | 8.0 | 0.00 | 0.23 | 0.23 | 69 | 1012.5 |
| 20260831183054 | 31 | 182 | 4.8 | 12.9 | 0.00 | 0.23 | 0.23 | 69 | 1012.6 |
| 20260831182548 | 30 | 205 | 1.6 | 19.3 | 0.00 | 0.23 | 0.23 | 69 | 1012.6 |
| 20260831182044 | 31 | 237 | 4.8 | 12.9 | 0.00 | 0.23 | 0.23 | 67 | 1012.6 |
| 20260831181538 | 30 | 225 | 8.0 | 11.3 | 0.00 | 0.23 | 0.23 | 68 | 1012.8 |
| 20260831181038 | 30 | 199 | 9.7 | 17.7 | 0.00 | 0.23 | 0.23 | 70 | 1012.8 |
| 20260831180534 | 30 | 194 | 9.7 | 22.5 | 0.00 | 0.23 | 0.23 | 69 | 1012.7 |
| 20260831180028 | 30 | 209 | 4.8 | 16.1 | 0.00 | 0.23 | 0.23 | 69 | 1012.5 |
| 20260831175524 | 30 | 209 | 9.7 | 14.5 | 0.00 | 0.23 | 0.23 | 69 | 1012.8 |
| 20260831175021 | 29 | 222 | 4.8 | 17.7 | 0.00 | 0.23 | 0.23 | 71 | 1012.8 |
| 20260831174520 | 29 | 224 | 11.3 | 16.1 | 0.00 | 0.23 | 0.23 | 71 | 1013.0 |
| 20260831174015 | 29 | 123 | 8.0 | 9.7 | 0.00 | 0.23 | 0.23 | 71 | 1013.0 |
| 20260831173513 | 28 | 240 | 11.3 | 11.3 | 0.00 | 0.23 | 0.23 | 72 | 1013.1 |
| 20260831173010 | 28 | 180 | 9.7 | 11.3 | 0.00 | 0.23 | 0.23 | 72 | 1012.9 |
| 20260831172505 | 28 | 225 | 9.7 | 12.9 | 0.00 | 0.23 | 0.23 | 73 | 1013.2 |
| 20260831171959 | 28 | 208 | 17.7 | 19.3 | 0.00 | 0.23 | 0.23 | 72 | 1013.2 |
| 20260831171455 | 28 | 207 | 9.7 | 11.3 | 0.00 | 0.23 | 0.23 | 72 | 1013.3 |
| 20260831170952 | 28 | 168 | 8.0 | 16.1 | 0.00 | 0.23 | 0.23 | 75 | 1013.3 |
| 20260831170448 | 27 | 182 | 3.2 | 11.3 | 0.00 | 0.23 | 0.23 | 78 | 1013.4 |
| 20260831165945 | 27 | 173 | 3.2 | 12.9 | 0.00 | 0.23 | 0.23 | 78 | 1013.3 |
| 20260831165440 | 26 | 193 | 0.0 | 14.5 | 0.00 | 0.23 | 0.23 | 80 | 1013.6 |
| 20260831164937 | 26 | 203 | 14.5 | 14.5 | 0.00 | 0.23 | 0.23 | 78 | 1013.9 |
| 20260831164432 | 26 | 204 | 9.7 | 11.3 | 0.00 | 0.23 | 0.23 | 78 | 1013.7 |
| 20260831163927 | 26 | 211 | 0.0 | 11.3 | 0.00 | 0.23 | 0.23 | 80 | 1013.4 |
| 20260831163423 | 26 | 126 | 8.0 | 9.7 | 0.00 | 0.23 | 0.23 | 80 | 1013.9 |
| 20260831162921 | 25 | 203 | 6.4 | 11.3 | 0.00 | 0.23 | 0.23 | 81 | 1013.8 |
| 20260831162417 | 25 | 112 | 3.2 | 8.0 | 0.00 | 0.23 | 0.23 | 81 | 1013.8 |
| 20260831161914 | 25 | 207 | 3.2 | 8.0 | 0.00 | 0.23 | 0.23 | 83 | 1013.9 |
| 20260831161412 | 25 | 219 | 8.0 | 14.5 | 0.00 | 0.23 | 0.23 | 82 | 1013.8 |
| 20260831160907 | 25 | 152 | 4.8 | 8.0 | 0.00 | 0.23 | 0.23 | 84 | 1013.9 |
| 20260831160401 | 24 | 186 | 3.2 | 9.7 | 0.00 | 0.23 | 0.23 | 86 | 1013.8 |
| 20260831155851 | 24 | 149 | 6.4 | 8.0 | 0.00 | 0.23 | 0.23 | 85 | 1013.7 |
| 20260831155350 | 24 | 151 | 4.8 | 6.4 | 0.00 | 0.23 | 0.23 | 87 | 1013.8 |
| 20260831154846 | 23 | 138 | 3.2 | 6.4 | 0.00 | 0.23 | 0.23 | 88 | 1014.1 |
| 20260831154343 | 23 | 160 | 4.8 | 6.4 | 0.00 | 0.23 | 0.23 | 90 | 1014.0 |
| 20260831153841 | 23 | 196 | 1.6 | 6.4 | 0.00 | 0.23 | 0.23 | 90 | 1014.0 |
| 20260831153337 | 22 | 124 | 3.2 | 8.0 | 0.00 | 0.23 | 0.23 | 90 | 1014.1 |
| 20260831152833 | 22 | 75 | 0.0 | 4.8 | 0.00 | 0.23 | 0.23 | 92 | 1013.8 |
| 20260831152329 | 22 | 116 | 3.2 | 11.3 | 0.00 | 0.23 | 0.23 | 91 | 1014.0 |
| 20260831151824 | 22 | 141 | 1.6 | 6.4 | 0.36 | 0.23 | 0.23 | 92 | 1014.3 |
| 20260831151322 | 22 | 230 | 3.2 | 8.0 | 0.48 | 0.23 | 0.23 | 92 | 1014.1 |
| 20260831150818 | 23 | 98 | 3.2 | 6.4 | 0.05 | 0.18 | 0.18 | 86 | 1014.1 |
| 20260831150313 | 23 | 158 | 3.2 | 6.4 | 0.00 | 0.15 | 0.15 | 85 | 1014.3 |
| 20260831145812 | 23 | 147 | 3.2 | 6.4 | 0.00 | 0.15 | 0.15 | 86 | 1014.0 |
| 20260831145309 | 23 | 113 | 4.8 | 4.8 | 0.00 | 0.15 | 0.15 | 87 | 1014.2 |
| 20260831144805 | 23 | 238 | 0.0 | 4.8 | 0.00 | 0.15 | 0.15 | 87 | 1014.1 |
| 20260831144301 | 23 | 116 | 6.4 | 6.4 | 0.00 | 0.15 | 0.15 | 87 | 1013.9 |
| 20260831143800 | 22 | 131 | 4.8 | 9.7 | 0.00 | 0.15 | 0.15 | 88 | 1014.0 |
| 20260831143255 | 22 | 122 | 4.8 | 6.4 | 0.00 | 0.15 | 0.15 | 88 | 1014.0 |
| 20260831142750 | 22 | 124 | 4.8 | 9.7 | 0.00 | 0.15 | 0.15 | 89 | 1013.8 |
| 20260831142246 | 22 | 112 | 1.6 | 6.4 | 0.00 | 0.15 | 0.15 | 90 | 1014.0 |
| 20260831141745 | 22 | 112 | 3.2 | 4.8 | 0.00 | 0.15 | 0.15 | 90 | 1013.9 |
| 20260831141245 | 21 | 126 | 3.2 | 6.4 | 0.00 | 0.15 | 0.15 | 92 | 1014.0 |
| 20260831140740 | 21 | 125 | 6.4 | 8.0 | 0.00 | 0.15 | 0.15 | 92 | 1013.9 |
| 20260831140234 | 21 | 138 | 4.8 | 6.4 | 0.00 | 0.15 | 0.15 | 93 | 1014.0 |
| 20260831135732 | 21 | 125 | 4.8 | 8.0 | 0.00 | 0.15 | 0.15 | 93 | 1013.8 |
| 20260831135228 | 21 | 112 | 3.2 | 4.8 | 0.00 | 0.15 | 0.15 | 93 | 1013.8 |
| 20260831134723 | 21 | 132 | 3.2 | 6.4 | 0.00 | 0.15 | 0.15 | 94 | 1013.9 |
| 20260831134220 | 21 | 135 | 6.4 | 6.4 | 0.00 | 0.15 | 0.15 | 94 | 1014.2 |
| 20260831133718 | 21 | 124 | 4.8 | 4.8 | 0.00 | 0.15 | 0.15 | 95 | 1014.1 |
| 20260831133213 | 21 | 111 | 0.0 | 3.2 | 0.00 | 0.15 | 0.15 | 96 | 1014.0 |
| 20260831132709 | 20 | 15 | 0.0 | 3.2 | 0.00 | 0.15 | 0.15 | 96 | 1014.1 |
| 20260831132208 | 20 | 152 | 0.0 | 3.2 | 0.00 | 0.15 | 0.15 | 95 | 1013.9 |
| 20260831131703 | 20 | 119 | 4.8 | 8.0 | 0.00 | 0.15 | 0.15 | 95 | 1013.8 |
| 20260831131200 | 20 | 124 | 6.4 | 9.7 | 0.00 | 0.15 | 0.15 | 95 | 1013.8 |
| 20260831130654 | 20 | 108 | 0.0 | 4.8 | 0.00 | 0.15 | 0.15 | 95 | 1013.8 |
| 20260831130150 | 20 | 121 | 1.6 | 4.8 | 0.05 | 0.15 | 0.15 | 96 | 1013.9 |
| 20260831125648 | 20 | 129 | 6.4 | 6.4 | 0.36 | 0.15 | 0.15 | 95 | 1014.0 |
| 20260831125144 | 21 | 126 | 3.2 | 4.8 | 0.66 | 0.15 | 0.15 | 94 | 1014.3 |
| 20260831124640 | 21 | 163 | 3.2 | 3.2 | 0.36 | 0.10 | 0.10 | 92 | 1014.4 |
| 20260831124136 | 21 | 209 | 0.0 | 3.2 | 0.00 | 0.05 | 0.05 | 90 | 1014.2 |
| 20260831123635 | 21 | 55 | 0.0 | 1.6 | 0.00 | 0.05 | 0.05 | 90 | 1013.6 |
| 20260831123134 | 21 | 310 | 0.0 | 1.6 | 0.00 | 0.05 | 0.05 | 88 | 1013.6 |
| 20260831122634 | 22 | 147 | 0.0 | 3.2 | 0.00 | 0.05 | 0.05 | 86 | 1013.7 |
| 20260831122130 | 22 | 28 | 1.6 | 3.2 | 0.00 | 0.05 | 0.05 | 85 | 1013.6 |
| 20260831121629 | 22 | 107 | 0.0 | 6.4 | 0.00 | 0.05 | 0.05 | 84 | 1013.5 |
| 20260831121126 | 22 | 151 | 0.0 | 3.2 | 0.00 | 0.05 | 0.05 | 84 | 1013.3 |
| 20260831120626 | 22 | 173 | 3.2 | 3.2 | 0.00 | 0.05 | 0.05 | 85 | 1013.0 |
| 20260831120116 | 22 | 155 | 3.2 | 8.0 | 0.00 | 0.05 | 0.05 | 85 | 1013.3 |
| 20260831115612 | 22 | 197 | 9.7 | 9.7 | 0.00 | 0.05 | 0.05 | 85 | 1013.3 |
| 20260831115107 | 22 | 150 | 0.0 | 8.0 | 0.00 | 0.05 | 0.05 | 85 | 1013.1 |
| 20260831114606 | 22 | 195 | 3.2 | 4.8 | 0.00 | 0.05 | 0.05 | 85 | 1013.2 |
| 20260831114102 | 21 | 173 | 3.2 | 8.0 | 0.00 | 0.05 | 0.05 | 86 | 1012.9 |
| 20260831113600 | 21 | 157 | 0.0 | 4.8 | 0.00 | 0.05 | 0.05 | 87 | 1012.9 |
| 20260831113056 | 21 | 237 | 1.6 | 6.4 | 0.00 | 0.05 | 0.05 | 87 | 1012.9 |
| 20260831112555 | 21 | 148 | 0.0 | 3.2 | 0.00 | 0.05 | 0.05 | 90 | 1013.0 |
| 20260831112050 | 21 | 232 | 0.0 | 3.2 | 0.00 | 0.05 | 0.05 | 90 | 1012.9 |
| 20260831111546 | 21 | 141 | 0.0 | 4.8 | 0.00 | 0.05 | 0.05 | 89 | 1012.9 |
| 20260831111042 | 21 | 231 | 3.2 | 3.2 | 0.00 | 0.05 | 0.05 | 88 | 1012.9 |
| 20260831110536 | 21 | 221 | 3.2 | 6.4 | 0.00 | 0.05 | 0.05 | 89 | 1012.9 |
| 20260831110031 | 21 | 139 | 3.2 | 6.4 | 0.13 | 0.05 | 0.05 | 89 | 1012.9 |
| 20260831105531 | 21 | 148 | 0.0 | 3.2 | 0.13 | 0.05 | 0.05 | 90 | 1013.2 |
| 20260831105026 | 21 | 155 | 0.0 | 4.8 | 0.13 | 0.03 | 0.03 | 89 | 1012.9 |
| 20260831104522 | 21 | 182 | 0.0 | 4.8 | 0.13 | 0.03 | 0.03 | 88 | 1013.2 |
| 20260831104018 | 22 | 234 | 1.6 | 6.4 | 0.00 | 0.00 | 0.00 | 85 | 1013.2 |
| 20260831103518 | 22 | 223 | 0.0 | 3.2 | 0.00 | 0.00 | 0.00 | 86 | 1013.2 |
| 20260831103015 | 22 | 162 | 3.2 | 3.2 | 0.00 | 0.00 | 0.00 | 86 | 1013.2 |
| 20260831102508 | 22 | 175 | 0.0 | 4.8 | 0.00 | 0.00 | 0.00 | 85 | 1013.2 |
| 20260831102003 | 22 | 159 | 0.0 | 6.4 | 0.00 | 0.00 | 0.00 | 86 | 1013.0 |
| 20260831101458 | 22 | 219 | 0.0 | 4.8 | 0.00 | 0.00 | 0.00 | 86 | 1013.0 |
| 20260831100954 | 22 | 184 | 3.2 | 6.4 | 0.00 | 0.00 | 0.00 | 86 | 1013.0 |
| 20260831100450 | 22 | 179 | 3.2 | 3.2 | 0.00 | 0.00 | 0.00 | 86 | 1012.9 |
| 20260831095945 | 22 | 224 | 0.0 | 4.8 | 0.00 | 0.00 | 0.00 | 86 | 1012.8 |
| 20260831095445 | 22 | 133 | 3.2 | 3.2 | 0.00 | 0.00 | 0.00 | 87 | 1012.7 |
| 20260831094939 | 22 | 224 | 0.0 | 4.8 | 0.00 | 0.00 | 0.00 | 87 | 1012.9 |
| 20260831094436 | 22 | 168 | 1.6 | 4.8 | 0.00 | 0.00 | 0.00 | 87 | 1012.9 |
| 20260831093931 | 22 | 159 | 3.2 | 3.2 | 0.00 | 0.00 | 0.00 | 87 | 1013.0 |
| 20260831093426 | 22 | 168 | 0.0 | 3.2 | 0.00 | 0.00 | 0.00 | 87 | 1013.0 |
| 20260831092923 | 22 | 143 | 0.0 | 8.0 | 0.00 | 0.00 | 0.00 | 87 | 1012.9 |
| 20260831092418 | 22 | 148 | 3.2 | 3.2 | 0.00 | 0.00 | 0.00 | 87 | 1013.2 |
| 20260831091913 | 22 | 250 | 3.2 | 4.8 | 0.00 | 0.00 | 0.00 | 87 | 1013.3 |
| 20260831091408 | 22 | 205 | 3.2 | 4.8 | 0.00 | 0.00 | 0.00 | 87 | 1013.3 |
| 20260831090858 | 22 | 205 | 1.6 | 3.2 | 0.00 | 0.00 | 0.00 | 87 | 1013.0 |
| 20260831090354 | 22 | 164 | 0.0 | 0.0 | 0.00 | 0.00 | 0.00 | 86 | 1013.1 |
| 20260831085850 | 22 | 202 | 1.6 | 3.2 | 0.00 | 0.00 | 0.00 | 86 | 1013.1 |
| 20260831085344 | 22 | 127 | 1.6 | 3.2 | 0.00 | 0.00 | 0.00 | 86 | 1013.1 |
| 20260831084844 | 22 | 247 | 1.6 | 4.8 | 0.00 | 0.00 | 0.00 | 86 | 1013.1 |
| 20260831084340 | 22 | 199 | 0.0 | 4.8 | 0.00 | 0.00 | 0.00 | 86 | 1012.9 |
| 20260831083837 | 22 | 146 | 0.0 | 3.2 | 0.00 | 0.00 | 0.00 | 86 | 1012.9 |
| 20260831083332 | 22 | 191 | 0.0 | 3.2 | 0.00 | 0.00 | 0.00 | 86 | 1013.2 |